| time (UTC) | temp F | wind direction | speed MPH | gust MPH | rain 1hr in | rain 24hr in | rain mn in | humidity % | barometer mb |
| 20260504233810 | 73 | 212 | 0.0 | 4.0 | 0.00 | 0.00 | 0.00 | 49 | 1005.7 |
| 20260504233702 | 73 | 159 | 0.0 | 4.0 | 0.00 | 0.00 | 0.00 | 49 | 1005.7 |
| 20260504233601 | 73 | 144 | 1.0 | 10.0 | 0.00 | 0.00 | 0.00 | 49 | 1005.6 |
| 20260504233500 | 73 | 237 | 0.0 | 10.0 | 0.00 | 0.00 | 0.00 | 49 | 1005.7 |
| 20260504233401 | 73 | 225 | 0.0 | 10.0 | 0.00 | 0.00 | 0.00 | 49 | 1005.7 |
| 20260504233302 | 73 | 188 | 1.0 | 10.0 | 0.00 | 0.00 | 0.00 | 48 | 1005.7 |
| 20260504233202 | 73 | 213 | 4.0 | 10.0 | 0.00 | 0.00 | 0.00 | 48 | 1005.7 |
| 20260504233003 | 73 | 176 | 0.0 | 10.0 | 0.00 | 0.00 | 0.00 | 48 | 1005.7 |
| 20260504232902 | 73 | 234 | 2.0 | 10.0 | 0.00 | 0.00 | 0.00 | 49 | 1005.7 |
| 20260504232802 | 73 | 180 | 1.0 | 10.0 | 0.00 | 0.00 | 0.00 | 48 | 1005.7 |
| 20260504232602 | 74 | 203 | 2.0 | 8.0 | 0.00 | 0.00 | 0.00 | 48 | 1005.8 |
| 20260504232502 | 74 | 224 | 3.0 | 8.0 | 0.00 | 0.00 | 0.00 | 47 | 1005.8 |
| 20260504232401 | 74 | 198 | 3.0 | 8.0 | 0.00 | 0.00 | 0.00 | 47 | 1005.7 |
| 20260504232304 | 74 | 236 | 2.0 | 10.0 | 0.00 | 0.00 | 0.00 | 47 | 1005.7 |
| 20260504232203 | 74 | 182 | 3.0 | 10.0 | 0.00 | 0.00 | 0.00 | 48 | 1005.8 |
| 20260504232101 | 74 | 205 | 3.0 | 10.0 | 0.00 | 0.00 | 0.00 | 47 | 1005.9 |
| 20260504231902 | 74 | 150 | 1.0 | 10.0 | 0.00 | 0.00 | 0.00 | 48 | 1005.9 |
| 20260504231801 | 74 | 68 | 2.0 | 10.0 | 0.00 | 0.00 | 0.00 | 47 | 1005.9 |
| 20260504231701 | 74 | 192 | 2.0 | 10.0 | 0.00 | 0.00 | 0.00 | 47 | 1005.9 |
| 20260504231603 | 74 | 198 | 0.0 | 10.0 | 0.00 | 0.00 | 0.00 | 47 | 1005.9 |
| 20260504231501 | 74 | 230 | 3.0 | 10.0 | 0.00 | 0.00 | 0.00 | 46 | 1005.9 |
| 20260504231401 | 74 | 159 | 7.0 | 10.0 | 0.00 | 0.00 | 0.00 | 47 | 1006.0 |
| 20260504231301 | 74 | 215 | 0.0 | 7.0 | 0.00 | 0.00 | 0.00 | 47 | 1006.0 |
| 20260504231202 | 74 | 144 | 4.0 | 7.0 | 0.00 | 0.00 | 0.00 | 47 | 1006.0 |
| 20260504231100 | 74 | 323 | 2.0 | 7.0 | 0.00 | 0.00 | 0.00 | 46 | 1006.0 |
| 20260504231000 | 74 | 211 | 2.0 | 7.0 | 0.00 | 0.00 | 0.00 | 46 | 1006.0 |
| 20260504230902 | 74 | 188 | 3.0 | 7.0 | 0.00 | 0.00 | 0.00 | 47 | 1006.0 |
| 20260504230800 | 74 | 241 | 0.0 | 10.0 | 0.00 | 0.00 | 0.00 | 47 | 1006.0 |
| 20260504230601 | 74 | 286 | 4.0 | 10.0 | 0.00 | 0.00 | 0.00 | 47 | 1006.1 |
| 20260504230500 | 74 | 172 | 2.0 | 10.0 | 0.00 | 0.00 | 0.00 | 47 | 1006.0 |
| 20260504230402 | 74 | 257 | 2.0 | 14.0 | 0.00 | 0.00 | 0.00 | 46 | 1006.0 |
| 20260504230301 | 74 | 202 | 4.0 | 14.0 | 0.00 | 0.00 | 0.00 | 46 | 1006.0 |
| 20260504230202 | 74 | 215 | 5.0 | 14.0 | 0.00 | 0.00 | 0.00 | 46 | 1006.1 |
| 20260504230101 | 74 | 242 | 1.0 | 14.0 | 0.00 | 0.00 | 0.00 | 46 | 1006.1 |
| 20260504230005 | 75 | 179 | 4.0 | 14.0 | 0.00 | 0.00 | 0.00 | 45 | 1006.1 |
| 20260504225901 | 75 | 194 | 9.0 | 14.0 | 0.00 | 0.00 | 0.00 | 46 | 1006.1 |
| 20260504225800 | 75 | 161 | 1.0 | 14.0 | 0.00 | 0.00 | 0.00 | 46 | 1006.0 |
| 20260504225601 | 75 | 177 | 5.0 | 14.0 | 0.00 | 0.00 | 0.00 | 45 | 1006.0 |
| 20260504225503 | 75 | 235 | 5.0 | 13.0 | 0.00 | 0.00 | 0.00 | 45 | 1006.0 |
| 20260504225401 | 75 | 190 | 9.0 | 10.0 | 0.00 | 0.00 | 0.00 | 45 | 1006.1 |
| 20260504225301 | 75 | 157 | 2.0 | 10.0 | 0.00 | 0.00 | 0.00 | 46 | 1006.1 |
| 20260504225203 | 75 | 192 | 2.0 | 10.0 | 0.00 | 0.00 | 0.00 | 46 | 1006.1 |
| 20260504225101 | 75 | 213 | 2.0 | 11.0 | 0.00 | 0.00 | 0.00 | 45 | 1006.0 |
| 20260504225001 | 75 | 245 | 0.0 | 11.0 | 0.00 | 0.00 | 0.00 | 45 | 1006.1 |
| 20260504224901 | 75 | 194 | 2.0 | 11.0 | 0.00 | 0.00 | 0.00 | 45 | 1006.0 |
| 20260504224703 | 75 | 211 | 3.0 | 11.0 | 0.00 | 0.00 | 0.00 | 46 | 1006.1 |
| 20260504224602 | 75 | 154 | 3.0 | 15.0 | 0.00 | 0.00 | 0.00 | 45 | 1006.1 |
| 20260504224502 | 75 | 209 | 1.0 | 17.0 | 0.00 | 0.00 | 0.00 | 45 | 1006.0 |
| 20260504224302 | 75 | 202 | 9.0 | 17.0 | 0.00 | 0.00 | 0.00 | 45 | 1006.0 |
| 20260504224201 | 75 | 263 | 3.0 | 17.0 | 0.00 | 0.00 | 0.00 | 46 | 1006.0 |
| 20260504224101 | 75 | 202 | 7.0 | 17.0 | 0.00 | 0.00 | 0.00 | 45 | 1006.0 |
| 20260504224002 | 75 | 167 | 5.0 | 17.0 | 0.00 | 0.00 | 0.00 | 44 | 1006.0 |
| 20260504223902 | 75 | 184 | 3.0 | 17.0 | 0.00 | 0.00 | 0.00 | 45 | 1006.0 |
| 20260504223801 | 75 | 113 | 8.0 | 17.0 | 0.00 | 0.00 | 0.00 | 45 | 1006.0 |
| 20260504223701 | 75 | 159 | 6.0 | 17.0 | 0.00 | 0.00 | 0.00 | 45 | 1006.0 |
| 20260504223603 | 75 | 97 | 6.0 | 13.0 | 0.00 | 0.00 | 0.00 | 46 | 1006.0 |
| 20260504223501 | 75 | 163 | 6.0 | 13.0 | 0.00 | 0.00 | 0.00 | 45 | 1006.0 |
| 20260504223401 | 75 | 190 | 2.0 | 13.0 | 0.00 | 0.00 | 0.00 | 45 | 1006.0 |
| 20260504223301 | 75 | 337 | 1.0 | 17.0 | 0.00 | 0.00 | 0.00 | 46 | 1006.1 |
| 20260504223202 | 75 | 313 | 4.0 | 17.0 | 0.00 | 0.00 | 0.00 | 45 | 1006.1 |
| 20260504223100 | 75 | 140 | 3.0 | 17.0 | 0.00 | 0.00 | 0.00 | 45 | 1006.1 |
| 20260504223002 | 75 | 212 | 7.0 | 17.0 | 0.00 | 0.00 | 0.00 | 45 | 1006.1 |
| 20260504222903 | 75 | 217 | 5.0 | 17.0 | 0.00 | 0.00 | 0.00 | 45 | 1006.1 |
| 20260504222701 | 75 | 190 | 4.0 | 20.0 | 0.00 | 0.00 | 0.00 | 45 | 1006.1 |
| 20260504222602 | 75 | 28 | 5.0 | 20.0 | 0.00 | 0.00 | 0.00 | 45 | 1006.1 |
| 20260504222501 | 75 | 217 | 10.0 | 20.0 | 0.00 | 0.00 | 0.00 | 44 | 1006.2 |
| 20260504222402 | 75 | 217 | 7.0 | 20.0 | 0.00 | 0.00 | 0.00 | 45 | 1006.2 |
| 20260504222301 | 75 | 323 | 6.0 | 20.0 | 0.00 | 0.00 | 0.00 | 45 | 1006.3 |
| 20260504222104 | 75 | 202 | 8.0 | 20.0 | 0.00 | 0.00 | 0.00 | 45 | 1006.2 |
| 20260504222003 | 75 | 228 | 4.0 | 20.0 | 0.00 | 0.00 | 0.00 | 44 | 1006.2 |
| 20260504221902 | 75 | 125 | 3.0 | 16.0 | 0.00 | 0.00 | 0.00 | 44 | 1006.2 |
| 20260504221800 | 75 | 185 | 7.0 | 16.0 | 0.00 | 0.00 | 0.00 | 45 | 1006.1 |
| 20260504221702 | 75 | 209 | 6.0 | 16.0 | 0.00 | 0.00 | 0.00 | 44 | 1006.1 |
| 20260504221602 | 75 | 188 | 3.0 | 16.0 | 0.00 | 0.00 | 0.00 | 44 | 1006.1 |
| 20260504221502 | 76 | 113 | 1.0 | 16.0 | 0.00 | 0.00 | 0.00 | 44 | 1006.1 |
| 20260504221401 | 76 | 181 | 8.0 | 16.0 | 0.00 | 0.00 | 0.00 | 44 | 1006.2 |
| 20260504221301 | 76 | 218 | 6.0 | 16.0 | 0.00 | 0.00 | 0.00 | 44 | 1006.2 |
| 20260504221201 | 76 | 223 | 5.0 | 14.0 | 0.00 | 0.00 | 0.00 | 45 | 1006.1 |
| 20260504221102 | 76 | 167 | 5.0 | 14.0 | 0.00 | 0.00 | 0.00 | 44 | 1006.1 |
| 20260504221004 | 76 | 104 | 3.0 | 14.0 | 0.00 | 0.00 | 0.00 | 44 | 1006.2 |
| 20260504220901 | 76 | 333 | 2.0 | 10.0 | 0.00 | 0.00 | 0.00 | 45 | 1006.2 |
| 20260504220803 | 76 | 225 | 6.0 | 10.0 | 0.00 | 0.00 | 0.00 | 46 | 1006.0 |
| 20260504220702 | 76 | 218 | 4.0 | 10.0 | 0.00 | 0.00 | 0.00 | 46 | 1006.0 |
| 20260504220601 | 76 | 183 | 2.0 | 10.0 | 0.00 | 0.00 | 0.00 | 46 | 1006.0 |
| 20260504220501 | 76 | 250 | 1.0 | 10.0 | 0.00 | 0.00 | 0.00 | 46 | 1006.0 |
| 20260504220401 | 76 | 196 | 3.0 | 10.0 | 0.00 | 0.00 | 0.00 | 45 | 1006.1 |
| 20260504220303 | 76 | 74 | 0.0 | 10.0 | 0.00 | 0.00 | 0.00 | 46 | 1006.0 |
| 20260504220203 | 76 | 219 | 2.0 | 10.0 | 0.00 | 0.00 | 0.00 | 45 | 1006.0 |
| 20260504220101 | 76 | 175 | 10.0 | 10.0 | 0.00 | 0.00 | 0.00 | 45 | 1006.0 |
| 20260504220004 | 76 | 251 | 2.0 | 10.0 | 0.00 | 0.00 | 0.00 | 45 | 1006.0 |
| 20260504215901 | 76 | 27 | 4.0 | 12.0 | 0.00 | 0.00 | 0.00 | 46 | 1006.0 |
| 20260504215801 | 76 | 22 | 3.0 | 12.0 | 0.00 | 0.00 | 0.00 | 47 | 1006.1 |
| 20260504215703 | 76 | 178 | 0.0 | 12.0 | 0.00 | 0.00 | 0.00 | 45 | 1006.1 |
| 20260504215602 | 76 | 171 | 5.0 | 13.0 | 0.00 | 0.00 | 0.00 | 46 | 1006.1 |
| 20260504215501 | 76 | 181 | 4.0 | 13.0 | 0.00 | 0.00 | 0.00 | 45 | 1006.2 |
| 20260504215402 | 76 | 186 | 4.0 | 13.0 | 0.00 | 0.00 | 0.00 | 47 | 1006.2 |
| 20260504215301 | 76 | 229 | 2.0 | 13.0 | 0.00 | 0.00 | 0.00 | 46 | 1006.1 |
| 20260504215202 | 76 | 302 | 7.0 | 13.0 | 0.00 | 0.00 | 0.00 | 47 | 1006.1 |
| 20260504215101 | 75 | 184 | 4.0 | 13.0 | 0.00 | 0.00 | 0.00 | 46 | 1006.1 |
| 20260504215001 | 75 | 189 | 6.0 | 13.0 | 0.00 | 0.00 | 0.00 | 46 | 1006.1 |
| 20260504214703 | 75 | 315 | 2.0 | 13.0 | 0.00 | 0.00 | 0.00 | 47 | 1006.1 |
| 20260504214601 | 75 | 154 | 8.0 | 15.0 | 0.00 | 0.00 | 0.00 | 49 | 1006.3 |
| 20260504214502 | 75 | 161 | 1.0 | 9.0 | 0.00 | 0.00 | 0.00 | 49 | 1006.3 |
| 20260504214402 | 75 | 239 | 2.0 | 9.0 | 0.00 | 0.00 | 0.00 | 49 | 1006.1 |
| 20260504214301 | 75 | 154 | 1.0 | 9.0 | 0.00 | 0.00 | 0.00 | 49 | 1006.1 |
| 20260504214102 | 75 | 180 | 2.0 | 9.0 | 0.00 | 0.00 | 0.00 | 49 | 1006.1 |
| 20260504214002 | 75 | 198 | 1.0 | 9.0 | 0.00 | 0.00 | 0.00 | 49 | 1006.1 |
| 20260504213904 | 75 | 151 | 6.0 | 9.0 | 0.00 | 0.00 | 0.00 | 50 | 1006.1 |
| 20260504213801 | 75 | 108 | 2.0 | 4.0 | 0.00 | 0.00 | 0.00 | 49 | 1006.2 |
| 20260504213701 | 75 | 198 | 2.0 | 4.0 | 0.00 | 0.00 | 0.00 | 50 | 1006.1 |
| 20260504213602 | 75 | 139 | 1.0 | 4.0 | 0.00 | 0.00 | 0.00 | 50 | 1006.1 |
| 20260504213501 | 75 | 202 | 0.0 | 2.0 | 0.00 | 0.00 | 0.00 | 51 | 1006.3 |
| 20260504213401 | 75 | 196 | 0.0 | 3.0 | 0.00 | 0.00 | 0.00 | 51 | 1006.2 |
| 20260504213301 | 75 | 186 | 0.0 | 3.0 | 0.00 | 0.00 | 0.00 | 50 | 1006.3 |
| 20260504213201 | 75 | 178 | 0.0 | 3.0 | 0.00 | 0.00 | 0.00 | 51 | 1006.2 |
| 20260504213002 | 75 | 163 | 0.0 | 3.0 | 0.00 | 0.00 | 0.00 | 51 | 1006.3 |
| 20260504212903 | 75 | 184 | 0.0 | 3.0 | 0.00 | 0.00 | 0.00 | 52 | 1006.3 |
| 20260504212801 | 75 | 148 | 0.0 | 3.0 | 0.00 | 0.00 | 0.00 | 50 | 1006.4 |
| 20260504212701 | 75 | 209 | 2.0 | 3.0 | 0.00 | 0.00 | 0.00 | 51 | 1006.4 |
| 20260504212603 | 75 | 217 | 1.0 | 5.0 | 0.00 | 0.00 | 0.00 | 51 | 1006.5 |
| 20260504212502 | 75 | 208 | 2.0 | 5.0 | 0.00 | 0.00 | 0.00 | 51 | 1006.4 |
| 20260504212203 | 75 | 132 | 0.0 | 5.0 | 0.00 | 0.00 | 0.00 | 52 | 1006.6 |
| 20260504212001 | 75 | 168 | 2.0 | 7.0 | 0.00 | 0.00 | 0.00 | 51 | 1006.7 |
| 20260504211902 | 75 | 217 | 1.0 | 7.0 | 0.00 | 0.00 | 0.00 | 50 | 1006.7 |
| 20260504211803 | 75 | 327 | 0.0 | 7.0 | 0.00 | 0.00 | 0.00 | 51 | 1006.7 |
| 20260504211701 | 75 | 207 | 1.0 | 7.0 | 0.00 | 0.00 | 0.00 | 50 | 1006.7 |
| 20260504211601 | 75 | 290 | 4.0 | 7.0 | 0.00 | 0.00 | 0.00 | 50 | 1006.7 |
| 20260504211504 | 75 | 202 | 3.0 | 7.0 | 0.00 | 0.00 | 0.00 | 49 | 1006.7 |
| 20260504211403 | 75 | 178 | 1.0 | 7.0 | 0.00 | 0.00 | 0.00 | 50 | 1006.7 |
| 20260504211301 | 75 | 159 | 2.0 | 7.0 | 0.00 | 0.00 | 0.00 | 49 | 1006.9 |
| 20260504211201 | 75 | 198 | 4.0 | 7.0 | 0.00 | 0.00 | 0.00 | 50 | 1007.0 |
| 20260504211002 | 75 | 173 | 0.0 | 5.0 | 0.00 | 0.00 | 0.00 | 49 | 1007.0 |
| 20260504210902 | 75 | 276 | 3.0 | 5.0 | 0.00 | 0.00 | 0.00 | 50 | 1006.9 |
| 20260504210801 | 75 | 310 | 1.0 | 5.0 | 0.00 | 0.00 | 0.00 | 51 | 1006.8 |
| 20260504210701 | 75 | 219 | 1.0 | 5.0 | 0.00 | 0.00 | 0.00 | 50 | 1006.7 |
| 20260504210603 | 75 | 300 | 0.0 | 5.0 | 0.00 | 0.00 | 0.00 | 49 | 1006.7 |
| 20260504210502 | 75 | 242 | 0.0 | 5.0 | 0.00 | 0.00 | 0.00 | 49 | 1006.7 |
| 20260504210301 | 76 | 196 | 3.0 | 5.0 | 0.00 | 0.00 | 0.00 | 49 | 1006.8 |
| 20260504210200 | 76 | 203 | 0.0 | 3.0 | 0.00 | 0.00 | 0.00 | 48 | 1006.8 |
| 20260504210101 | 76 | 250 | 0.0 | 3.0 | 0.00 | 0.00 | 0.00 | 48 | 1006.8 |
| 20260504210000 | 76 | 221 | 0.0 | 3.0 | 0.00 | 0.00 | 0.00 | 49 | 1006.9 |
| 20260504205901 | 76 | 153 | 0.0 | 5.0 | 0.00 | 0.00 | 0.00 | 48 | 1006.9 |
| 20260504205801 | 76 | 211 | 0.0 | 5.0 | 0.00 | 0.00 | 0.00 | 47 | 1007.0 |
| 20260504205702 | 76 | 200 | 0.0 | 8.0 | 0.00 | 0.00 | 0.00 | 48 | 1007.0 |
| 20260504205604 | 76 | 267 | 0.0 | 8.0 | 0.00 | 0.00 | 0.00 | 47 | 1007.0 |
| 20260504205501 | 76 | 269 | 0.0 | 8.0 | 0.00 | 0.00 | 0.00 | 47 | 1007.0 |
| 20260504205300 | 76 | 131 | 2.0 | 8.0 | 0.00 | 0.00 | 0.00 | 47 | 1007.1 |
| 20260504205201 | 76 | 303 | 2.0 | 8.0 | 0.00 | 0.00 | 0.00 | 46 | 1007.1 |
| 20260504205100 | 77 | 309 | 3.0 | 8.0 | 0.00 | 0.00 | 0.00 | 46 | 1007.0 |
| 20260504204800 | 77 | 208 | 4.0 | 9.0 | 0.00 | 0.00 | 0.00 | 47 | 1007.1 |
| 20260504204559 | 77 | 250 | 1.0 | 7.0 | 0.00 | 0.00 | 0.00 | 47 | 1007.0 |
| 20260504204500 | 77 | 245 | 0.0 | 7.0 | 0.00 | 0.00 | 0.00 | 47 | 1007.0 |
| 20260504204400 | 77 | 29 | 0.0 | 7.0 | 0.00 | 0.00 | 0.00 | 46 | 1007.0 |
| 20260504204301 | 77 | 113 | 2.0 | 7.0 | 0.00 | 0.00 | 0.00 | 46 | 1007.0 |
| 20260504204201 | 77 | 220 | 2.0 | 7.0 | 0.00 | 0.00 | 0.00 | 47 | 1007.1 |
| 20260504204100 | 77 | 337 | 2.0 | 7.0 | 0.00 | 0.00 | 0.00 | 47 | 1007.1 |
| 20260504204000 | 77 | 150 | 2.0 | 5.0 | 0.00 | 0.00 | 0.00 | 47 | 1007.1 |
| 20260504203900 | 77 | 182 | 2.0 | 5.0 | 0.00 | 0.00 | 0.00 | 49 | 1007.1 |
| 20260504203802 | 77 | 209 | 2.0 | 7.0 | 0.00 | 0.00 | 0.00 | 46 | 1007.1 |
| 20260504203600 | 77 | 280 | 4.0 | 7.0 | 0.00 | 0.00 | 0.00 | 48 | 1007.1 |
| 20260504203400 | 77 | 53 | 2.0 | 7.0 | 0.00 | 0.00 | 0.00 | 48 | 1007.2 |
| 20260504203202 | 77 | 121 | 2.0 | 7.0 | 0.00 | 0.00 | 0.00 | 47 | 1007.3 |
| 20260504203101 | 77 | 304 | 5.0 | 7.0 | 0.00 | 0.00 | 0.00 | 48 | 1007.2 |
| 20260504203000 | 76 | 36 | 3.0 | 9.0 | 0.00 | 0.00 | 0.00 | 48 | 1007.3 |
| 20260504202901 | 76 | 277 | 3.0 | 9.0 | 0.00 | 0.00 | 0.00 | 48 | 1007.4 |
| 20260504202802 | 76 | 193 | 2.0 | 9.0 | 0.00 | 0.00 | 0.00 | 48 | 1007.3 |
| 20260504202701 | 76 | 195 | 2.0 | 9.0 | 0.00 | 0.00 | 0.00 | 49 | 1007.4 |
| 20260504202501 | 76 | 175 | 3.0 | 9.0 | 0.00 | 0.00 | 0.00 | 51 | 1007.4 |
| 20260504202401 | 76 | 205 | 1.0 | 9.0 | 0.00 | 0.00 | 0.00 | 49 | 1007.3 |
| 20260504202200 | 76 | 201 | 3.0 | 9.0 | 0.00 | 0.00 | 0.00 | 48 | 1007.5 |
| 20260504202101 | 76 | 205 | 7.0 | 8.0 | 0.00 | 0.00 | 0.00 | 53 | 1007.4 |
| 20260504202001 | 76 | 342 | 3.0 | 7.0 | 0.00 | 0.00 | 0.00 | 51 | 1007.4 |
| 20260504201902 | 75 | 198 | 1.0 | 7.0 | 0.00 | 0.00 | 0.00 | 51 | 1007.5 |
| 20260504201801 | 75 | 112 | 1.0 | 7.0 | 0.00 | 0.00 | 0.00 | 53 | 1007.5 |
| 20260504201700 | 75 | 216 | 1.0 | 7.0 | 0.00 | 0.00 | 0.00 | 52 | 1007.6 |
| 20260504201501 | 75 | 167 | 5.0 | 7.0 | 0.00 | 0.00 | 0.00 | 53 | 1007.6 |
| 20260504201400 | 75 | 35 | 0.0 | 7.0 | 0.00 | 0.00 | 0.00 | 53 | 1007.6 |
| 20260504201301 | 75 | 246 | 1.0 | 7.0 | 0.00 | 0.00 | 0.00 | 52 | 1007.6 |
| 20260504201200 | 75 | 260 | 7.0 | 7.0 | 0.00 | 0.00 | 0.00 | 51 | 1007.6 |
| 20260504201100 | 75 | 284 | 2.0 | 6.0 | 0.00 | 0.00 | 0.00 | 50 | 1007.6 |
| 20260504201000 | 75 | 199 | 4.0 | 6.0 | 0.00 | 0.00 | 0.00 | 52 | 1007.6 |
| 20260504200900 | 75 | 183 | 2.0 | 6.0 | 0.00 | 0.00 | 0.00 | 51 | 1007.7 |
| 20260504200700 | 75 | 213 | 1.0 | 5.0 | 0.00 | 0.00 | 0.00 | 52 | 1007.7 |
| 20260504200600 | 75 | 270 | 1.0 | 5.0 | 0.00 | 0.00 | 0.00 | 51 | 1007.8 |
| 20260504200400 | 75 | 145 | 3.0 | 7.0 | 0.00 | 0.00 | 0.00 | 52 | 1007.7 |
| 20260504200202 | 75 | 211 | 0.0 | 7.0 | 0.00 | 0.00 | 0.00 | 51 | 1007.8 |
| 20260504195959 | 75 | 211 | 1.0 | 7.0 | 0.00 | 0.00 | 0.00 | 51 | 1007.8 |
| 20260504195900 | 75 | 355 | 1.0 | 7.0 | 0.00 | 0.00 | 0.00 | 51 | 1007.8 |
| 20260504195801 | 75 | 185 | 2.0 | 7.0 | 0.00 | 0.00 | 0.00 | 50 | 1007.8 |
| 20260504195659 | 75 | 150 | 2.0 | 7.0 | 0.00 | 0.00 | 0.00 | 52 | 1007.8 |
| 20260504195459 | 75 | 219 | 5.0 | 9.0 | 0.00 | 0.00 | 0.00 | 51 | 1008.0 |
| 20260504195401 | 75 | 207 | 2.0 | 9.0 | 0.00 | 0.00 | 0.00 | 51 | 1007.9 |
| 20260504195259 | 75 | 258 | 3.0 | 9.0 | 0.00 | 0.00 | 0.00 | 50 | 1007.8 |
| 20260504195159 | 75 | 319 | 5.0 | 9.0 | 0.00 | 0.00 | 0.00 | 50 | 1007.9 |
| 20260504195100 | 75 | 222 | 3.0 | 9.0 | 0.00 | 0.00 | 0.00 | 50 | 1007.9 |
| 20260504195000 | 75 | 186 | 5.0 | 9.0 | 0.00 | 0.00 | 0.00 | 52 | 1008.0 |
| 20260504194902 | 75 | 201 | 0.0 | 9.0 | 0.00 | 0.00 | 0.00 | 50 | 1007.9 |
| 20260504194759 | 75 | 213 | 1.0 | 9.0 | 0.00 | 0.00 | 0.00 | 51 | 1007.9 |
| 20260504194659 | 75 | 182 | 3.0 | 9.0 | 0.00 | 0.00 | 0.00 | 51 | 1008.0 |
| 20260504194500 | 75 | 134 | 2.0 | 9.0 | 0.00 | 0.00 | 0.00 | 52 | 1007.9 |
| 20260504194400 | 75 | 186 | 2.0 | 9.0 | 0.00 | 0.00 | 0.00 | 52 | 1008.0 |
| 20260504194301 | 75 | 134 | 1.0 | 9.0 | 0.00 | 0.00 | 0.00 | 52 | 1008.0 |
| 20260504194100 | 75 | 162 | 1.0 | 9.0 | 0.00 | 0.00 | 0.00 | 49 | 1008.0 |
| 20260504193959 | 75 | 310 | 1.0 | 9.0 | 0.00 | 0.00 | 0.00 | 49 | 1008.1 |
| 20260504193859 | 75 | 173 | 6.0 | 10.0 | 0.00 | 0.00 | 0.00 | 51 | 1008.2 |
| 20260504193800 | 75 | 283 | 4.0 | 9.0 | 0.00 | 0.00 | 0.00 | 52 | 1008.1 |
| 20260504193659 | 75 | 288 | 3.0 | 9.0 | 0.00 | 0.00 | 0.00 | 51 | 1008.2 |
| 20260504193600 | 75 | 298 | 8.0 | 9.0 | 0.00 | 0.00 | 0.00 | 52 | 1008.2 |
| 20260504193500 | 75 | 201 | 4.0 | 9.0 | 0.00 | 0.00 | 0.00 | 51 | 1008.1 |
| 20260504193401 | 75 | 251 | 4.0 | 9.0 | 0.00 | 0.00 | 0.00 | 52 | 1008.2 |
| 20260504193301 | 75 | 223 | 1.0 | 9.0 | 0.00 | 0.00 | 0.00 | 52 | 1008.3 |
| 20260504193100 | 74 | 261 | 3.0 | 10.0 | 0.00 | 0.00 | 0.00 | 53 | 1008.3 |
| 20260504192859 | 74 | 160 | 4.0 | 10.0 | 0.00 | 0.00 | 0.00 | 52 | 1008.3 |
| 20260504192800 | 74 | 298 | 2.0 | 10.0 | 0.00 | 0.00 | 0.00 | 53 | 1008.3 |
| 20260504192700 | 74 | 189 | 2.0 | 11.0 | 0.00 | 0.00 | 0.00 | 52 | 1008.3 |
| 20260504192601 | 74 | 101 | 1.0 | 11.0 | 0.00 | 0.00 | 0.00 | 52 | 1008.3 |
| 20260504192501 | 74 | 331 | 4.0 | 11.0 | 0.00 | 0.00 | 0.00 | 53 | 1008.3 |
| 20260504192359 | 74 | 130 | 2.0 | 11.0 | 0.00 | 0.00 | 0.00 | 53 | 1008.4 |
| 20260504192300 | 74 | 186 | 4.0 | 11.0 | 0.00 | 0.00 | 0.00 | 53 | 1008.4 |
| 20260504192201 | 74 | 32 | 4.0 | 11.0 | 0.00 | 0.00 | 0.00 | 56 | 1008.4 |
| 20260504192000 | 73 | 182 | 0.0 | 11.0 | 0.00 | 0.00 | 0.00 | 56 | 1008.4 |
| 20260504191900 | 73 | 192 | 1.0 | 11.0 | 0.00 | 0.00 | 0.00 | 54 | 1008.3 |
| 20260504191801 | 73 | 316 | 11.0 | 11.0 | 0.00 | 0.00 | 0.00 | 55 | 1008.4 |
| 20260504191700 | 73 | 343 | 1.0 | 7.0 | 0.00 | 0.00 | 0.00 | 56 | 1008.4 |
| 20260504191459 | 73 | 303 | 5.0 | 9.0 | 0.00 | 0.00 | 0.00 | 56 | 1008.4 |
| 20260504191401 | 73 | 204 | 2.0 | 9.0 | 0.00 | 0.00 | 0.00 | 56 | 1008.4 |
| 20260504191300 | 73 | 190 | 2.0 | 9.0 | 0.00 | 0.00 | 0.00 | 55 | 1008.3 |
| 20260504191200 | 73 | 96 | 2.0 | 9.0 | 0.00 | 0.00 | 0.00 | 57 | 1008.4 |
| 20260504191101 | 73 | 249 | 2.0 | 9.0 | 0.00 | 0.00 | 0.00 | 55 | 1008.5 |
| 20260504190959 | 73 | 155 | 0.0 | 9.0 | 0.00 | 0.00 | 0.00 | 56 | 1008.5 |
| 20260504190900 | 73 | 202 | 0.0 | 9.0 | 0.00 | 0.00 | 0.00 | 55 | 1008.5 |
| 20260504190800 | 73 | 163 | 4.0 | 9.0 | 0.00 | 0.00 | 0.00 | 55 | 1008.5 |
| 20260504190659 | 73 | 199 | 5.0 | 9.0 | 0.00 | 0.00 | 0.00 | 56 | 1008.6 |
| 20260504190558 | 73 | 194 | 2.0 | 7.0 | 0.00 | 0.00 | 0.00 | 56 | 1008.6 |
| 20260504190459 | 73 | 201 | 3.0 | 11.0 | 0.00 | 0.00 | 0.00 | 56 | 1008.6 |
| 20260504190400 | 73 | 190 | 2.0 | 11.0 | 0.00 | 0.00 | 0.00 | 55 | 1008.6 |
| 20260504190300 | 73 | 190 | 7.0 | 11.0 | 0.00 | 0.00 | 0.00 | 56 | 1008.6 |
| 20260504190200 | 73 | 180 | 1.0 | 11.0 | 0.00 | 0.00 | 0.00 | 59 | 1008.7 |
| 20260504185800 | 72 | 155 | 3.0 | 11.0 | 0.00 | 0.00 | 0.00 | 57 | 1008.7 |
| 20260504185700 | 72 | 192 | 7.0 | 11.0 | 0.00 | 0.00 | 0.00 | 56 | 1008.6 |
| 20260504185601 | 72 | 259 | 8.0 | 13.0 | 0.00 | 0.00 | 0.00 | 56 | 1008.7 |
| 20260504185459 | 72 | 157 | 10.0 | 10.0 | 0.00 | 0.00 | 0.00 | 57 | 1008.7 |
| 20260504185400 | 72 | 289 | 4.0 | 9.0 | 0.00 | 0.00 | 0.00 | 57 | 1008.7 |
| 20260504185259 | 72 | 238 | 3.0 | 9.0 | 0.00 | 0.00 | 0.00 | 60 | 1008.7 |
| 20260504185201 | 72 | 148 | 1.0 | 8.0 | 0.00 | 0.00 | 0.00 | 59 | 1008.8 |
| 20260504185101 | 71 | 111 | 3.0 | 8.0 | 0.00 | 0.00 | 0.00 | 58 | 1008.7 |
| 20260504185000 | 71 | 168 | 5.0 | 8.0 | 0.00 | 0.00 | 0.00 | 59 | 1008.8 |
| 20260504184800 | 71 | 183 | 2.0 | 6.0 | 0.00 | 0.00 | 0.00 | 61 | 1008.8 |
| 20260504184500 | 70 | 200 | 2.0 | 5.0 | 0.00 | 0.00 | 0.00 | 62 | 1008.8 |
| 20260504184401 | 70 | 205 | 4.0 | 5.0 | 0.00 | 0.00 | 0.00 | 63 | 1008.8 |
| 20260504184259 | 70 | 168 | 0.0 | 6.0 | 0.00 | 0.00 | 0.00 | 62 | 1008.8 |
| 20260504184200 | 70 | 168 | 0.0 | 6.0 | 0.00 | 0.00 | 0.00 | 61 | 1008.9 |
| 20260504184101 | 70 | 171 | 0.0 | 6.0 | 0.00 | 0.00 | 0.00 | 60 | 1008.9 |
| 20260504183759 | 70 | 218 | 0.0 | 6.0 | 0.00 | 0.00 | 0.00 | 60 | 1008.9 |
| 20260504183359 | 70 | 207 | 5.0 | 6.0 | 0.00 | 0.00 | 0.00 | 61 | 1008.8 |
| 20260504183259 | 70 | 228 | 4.0 | 6.0 | 0.00 | 0.00 | 0.00 | 60 | 1008.8 |
| 20260504183159 | 70 | 17 | 1.0 | 6.0 | 0.00 | 0.00 | 0.00 | 61 | 1008.9 |
| 20260504183101 | 70 | 28 | 1.0 | 6.0 | 0.00 | 0.00 | 0.00 | 60 | 1008.9 |
| 20260504183000 | 70 | 122 | 3.0 | 6.0 | 0.00 | 0.00 | 0.00 | 61 | 1008.9 |
| 20260504182759 | 70 | 219 | 3.0 | 9.0 | 0.00 | 0.00 | 0.00 | 60 | 1008.8 |
| 20260504182702 | 70 | 168 | 1.0 | 9.0 | 0.00 | 0.00 | 0.00 | 60 | 1008.9 |
| 20260504182600 | 70 | 211 | 0.0 | 9.0 | 0.00 | 0.00 | 0.00 | 60 | 1008.9 |
| 20260504182459 | 70 | 173 | 7.0 | 9.0 | 0.00 | 0.00 | 0.00 | 60 | 1008.9 |
| 20260504182300 | 70 | 216 | 3.0 | 9.0 | 0.00 | 0.00 | 0.00 | 60 | 1008.8 |
| 20260504182159 | 70 | 305 | 1.0 | 9.0 | 0.00 | 0.00 | 0.00 | 59 | 1008.8 |
| 20260504182059 | 70 | 232 | 2.0 | 9.0 | 0.00 | 0.00 | 0.00 | 59 | 1008.9 |
| 20260504182002 | 70 | 165 | 5.0 | 9.0 | 0.00 | 0.00 | 0.00 | 59 | 1008.9 |
| 20260504181859 | 70 | 275 | 1.0 | 9.0 | 0.00 | 0.00 | 0.00 | 59 | 1008.9 |
| 20260504181800 | 70 | 319 | 2.0 | 7.0 | 0.00 | 0.00 | 0.00 | 60 | 1008.8 |
| 20260504181700 | 70 | 212 | 1.0 | 10.0 | 0.00 | 0.00 | 0.00 | 60 | 1008.7 |
| 20260504181600 | 70 | 213 | 1.0 | 10.0 | 0.00 | 0.00 | 0.00 | 60 | 1008.7 |
| 20260504181401 | 70 | 182 | 3.0 | 10.0 | 0.00 | 0.00 | 0.00 | 60 | 1008.8 |
| 20260504181201 | 70 | 198 | 2.0 | 10.0 | 0.00 | 0.00 | 0.00 | 59 | 1008.8 |
| 20260504181100 | 69 | 210 | 3.0 | 11.0 | 0.00 | 0.00 | 0.00 | 60 | 1008.7 |
| 20260504181000 | 69 | 163 | 2.0 | 11.0 | 0.00 | 0.00 | 0.00 | 61 | 1008.6 |
| 20260504180900 | 69 | 99 | 2.0 | 11.0 | 0.00 | 0.00 | 0.00 | 61 | 1008.7 |
| 20260504180800 | 69 | 187 | 1.0 | 11.0 | 0.00 | 0.00 | 0.00 | 60 | 1008.7 |
| 20260504180659 | 69 | 171 | 4.0 | 11.0 | 0.00 | 0.00 | 0.00 | 61 | 1008.7 |
| 20260504180500 | 69 | 215 | 2.0 | 11.0 | 0.00 | 0.00 | 0.00 | 60 | 1008.6 |
| 20260504180259 | 69 | 153 | 4.0 | 12.0 | 0.00 | 0.00 | 0.00 | 59 | 1008.6 |
| 20260504180201 | 69 | 224 | 4.0 | 7.0 | 0.00 | 0.00 | 0.00 | 60 | 1008.6 |
| 20260504175802 | 69 | 174 | 5.0 | 8.0 | 0.00 | 0.00 | 0.00 | 61 | 1008.5 |
| 20260504175700 | 69 | 235 | 2.0 | 8.0 | 0.00 | 0.00 | 0.00 | 61 | 1008.5 |
| 20260504175601 | 69 | 225 | 3.0 | 8.0 | 0.00 | 0.00 | 0.00 | 61 | 1008.5 |
| 20260504175500 | 69 | 165 | 4.0 | 8.0 | 0.00 | 0.00 | 0.00 | 62 | 1008.6 |
| 20260504175401 | 69 | 348 | 3.0 | 8.0 | 0.00 | 0.00 | 0.00 | 62 | 1008.5 |
| 20260504175259 | 69 | 65 | 1.0 | 8.0 | 0.00 | 0.00 | 0.00 | 60 | 1008.5 |
| 20260504175200 | 69 | 209 | 1.0 | 8.0 | 0.00 | 0.00 | 0.00 | 61 | 1008.4 |
| 20260504175100 | 69 | 151 | 4.0 | 8.0 | 0.00 | 0.00 | 0.00 | 59 | 1008.5 |
| 20260504175000 | 69 | 197 | 6.0 | 8.0 | 0.00 | 0.00 | 0.00 | 60 | 1008.4 |
| 20260504174800 | 69 | 271 | 2.0 | 8.0 | 0.00 | 0.00 | 0.00 | 59 | 1008.5 |
| 20260504174659 | 69 | 225 | 4.0 | 9.0 | 0.00 | 0.00 | 0.00 | 60 | 1008.5 |
| 20260504174601 | 69 | 200 | 1.0 | 9.0 | 0.00 | 0.00 | 0.00 | 59 | 1008.5 |
| 20260504174459 | 69 | 333 | 5.0 | 9.0 | 0.00 | 0.00 | 0.00 | 60 | 1008.5 |
| 20260504174359 | 69 | 191 | 3.0 | 9.0 | 0.00 | 0.00 | 0.00 | 61 | 1008.4 |
| 20260504174159 | 69 | 278 | 2.0 | 9.0 | 0.00 | 0.00 | 0.00 | 60 | 1008.5 |
| 20260504174059 | 69 | 170 | 4.0 | 9.0 | 0.00 | 0.00 | 0.00 | 59 | 1008.4 |
| 20260504174001 | 69 | 170 | 1.0 | 9.0 | 0.00 | 0.00 | 0.00 | 59 | 1008.4 |
| 20260504173902 | 69 | 209 | 2.0 | 11.0 | 0.00 | 0.00 | 0.00 | 59 | 1008.5 |
| 20260504173659 | 69 | 179 | 3.0 | 11.0 | 0.00 | 0.00 | 0.00 | 58 | 1008.6 |
| 20260504173601 | 69 | 165 | 4.0 | 11.0 | 0.00 | 0.00 | 0.00 | 61 | 1008.5 |
| 20260504173400 | 68 | 158 | 2.0 | 11.0 | 0.00 | 0.00 | 0.00 | 60 | 1008.5 |
| 20260504173200 | 68 | 186 | 6.0 | 11.0 | 0.00 | 0.00 | 0.00 | 62 | 1008.5 |
| 20260504173000 | 68 | 286 | 6.0 | 8.0 | 0.00 | 0.00 | 0.00 | 62 | 1008.4 |
| 20260504172901 | 68 | 195 | 1.0 | 8.0 | 0.00 | 0.00 | 0.00 | 62 | 1008.5 |
| 20260504172800 | 68 | 230 | 1.0 | 8.0 | 0.00 | 0.00 | 0.00 | 61 | 1008.5 |
| 20260504172700 | 68 | 213 | 4.0 | 8.0 | 0.00 | 0.00 | 0.00 | 60 | 1008.6 |
| 20260504172601 | 68 | 134 | 2.0 | 8.0 | 0.00 | 0.00 | 0.00 | 60 | 1008.6 |
| 20260504172500 | 68 | 190 | 3.0 | 8.0 | 0.00 | 0.00 | 0.00 | 59 | 1008.6 |
| 20260504172401 | 68 | 218 | 2.0 | 8.0 | 0.00 | 0.00 | 0.00 | 59 | 1008.6 |
| 20260504172301 | 68 | 155 | 2.0 | 8.0 | 0.00 | 0.00 | 0.00 | 58 | 1008.6 |
| 20260504172159 | 68 | 257 | 0.0 | 8.0 | 0.00 | 0.00 | 0.00 | 58 | 1008.5 |
| 20260504172100 | 68 | 322 | 2.0 | 8.0 | 0.00 | 0.00 | 0.00 | 60 | 1008.6 |
| 20260504172001 | 68 | 200 | 2.0 | 6.0 | 0.00 | 0.00 | 0.00 | 61 | 1008.6 |
| 20260504171859 | 68 | 156 | 0.0 | 6.0 | 0.00 | 0.00 | 0.00 | 59 | 1008.5 |
| 20260504171802 | 68 | 129 | 2.0 | 8.0 | 0.00 | 0.00 | 0.00 | 60 | 1008.6 |
| 20260504171659 | 68 | 238 | 2.0 | 8.0 | 0.00 | 0.00 | 0.00 | 61 | 1008.5 |
| 20260504171559 | 68 | 143 | 2.0 | 8.0 | 0.00 | 0.00 | 0.00 | 61 | 1008.5 |
| 20260504171500 | 68 | 286 | 3.0 | 8.0 | 0.00 | 0.00 | 0.00 | 61 | 1008.5 |
| 20260504171359 | 68 | 235 | 4.0 | 8.0 | 0.00 | 0.00 | 0.00 | 61 | 1008.6 |
| 20260504171259 | 67 | 128 | 1.0 | 8.0 | 0.00 | 0.00 | 0.00 | 61 | 1008.6 |
| 20260504171201 | 67 | 155 | 3.0 | 8.0 | 0.00 | 0.00 | 0.00 | 61 | 1008.6 |
| 20260504171100 | 67 | 162 | 1.0 | 8.0 | 0.00 | 0.00 | 0.00 | 60 | 1008.6 |
| 20260504170959 | 68 | 178 | 4.0 | 8.0 | 0.00 | 0.00 | 0.00 | 60 | 1008.6 |
| 20260504170900 | 68 | 327 | 8.0 | 8.0 | 0.00 | 0.00 | 0.00 | 60 | 1008.5 |
| 20260504170800 | 68 | 246 | 4.0 | 8.0 | 0.00 | 0.00 | 0.00 | 60 | 1008.4 |
| 20260504170700 | 68 | 179 | 1.0 | 7.0 | 0.00 | 0.00 | 0.00 | 59 | 1008.5 |
| 20260504170559 | 68 | 207 | 4.0 | 7.0 | 0.00 | 0.00 | 0.00 | 59 | 1008.5 |
| 20260504170500 | 68 | 301 | 4.0 | 8.0 | 0.00 | 0.00 | 0.00 | 59 | 1008.5 |
| 20260504170359 | 68 | 202 | 1.0 | 7.0 | 0.00 | 0.00 | 0.00 | 59 | 1008.4 |
| 20260504170300 | 68 | 173 | 2.0 | 7.0 | 0.00 | 0.00 | 0.00 | 58 | 1008.4 |
| 20260504170201 | 69 | 290 | 2.0 | 7.0 | 0.00 | 0.00 | 0.00 | 59 | 1008.4 |
| 20260504160400 | 68 | 138 | 8.0 | 8.0 | 0.00 | 0.00 | 0.00 | 62 | 1009.2 |
| 20260504160300 | 68 | 355 | 0.0 | 6.0 | 0.00 | 0.00 | 0.00 | 62 | 1009.1 |
| 20260504160201 | 68 | 298 | 2.0 | 6.0 | 0.00 | 0.00 | 0.00 | 60 | 1009.1 |
| 20260504151101 | 65 | 244 | 0.0 | 6.0 | 0.00 | 0.00 | 0.00 | 63 | 1009.1 |
| 20260504151000 | 65 | 265 | 1.0 | 6.0 | 0.00 | 0.00 | 0.00 | 64 | 1009.1 |
| 20260504150859 | 65 | 211 | 2.0 | 6.0 | 0.00 | 0.00 | 0.00 | 63 | 1009.0 |
| 20260504150800 | 65 | 277 | 1.0 | 6.0 | 0.00 | 0.00 | 0.00 | 65 | 1009.1 |
| 20260504150700 | 65 | 283 | 0.0 | 6.0 | 0.00 | 0.00 | 0.00 | 64 | 1009.2 |
| 20260504150601 | 65 | 281 | 2.0 | 6.0 | 0.00 | 0.00 | 0.00 | 64 | 1009.1 |
| 20260504150300 | 64 | 188 | 2.0 | 10.0 | 0.00 | 0.00 | 0.00 | 62 | 1009.0 |
| 20260504150201 | 64 | 179 | 2.0 | 10.0 | 0.00 | 0.00 | 0.00 | 66 | 1009.0 |
| 20260504141300 | 61 | 134 | 0.0 | 4.0 | 0.00 | 0.00 | 0.00 | 66 | 1008.9 |
| 20260504141200 | 61 | 219 | 0.0 | 4.0 | 0.00 | 0.00 | 0.00 | 66 | 1009.1 |
| 20260504141101 | 61 | 144 | 2.0 | 4.0 | 0.00 | 0.00 | 0.00 | 66 | 1009.1 |
| 20260504141000 | 61 | 196 | 0.0 | 4.0 | 0.00 | 0.00 | 0.00 | 67 | 1009.1 |
| 20260504140902 | 61 | 214 | 0.0 | 4.0 | 0.00 | 0.00 | 0.00 | 66 | 1009.1 |
| 20260504140800 | 61 | 265 | 0.0 | 4.0 | 0.00 | 0.00 | 0.00 | 66 | 1009.1 |
| 20260504140701 | 61 | 317 | 0.0 | 4.0 | 0.00 | 0.00 | 0.00 | 66 | 1009.0 |
| 20260504140600 | 61 | 179 | 2.0 | 4.0 | 0.00 | 0.00 | 0.00 | 66 | 1009.1 |
| 20260504140500 | 60 | 146 | 0.0 | 5.0 | 0.00 | 0.00 | 0.00 | 67 | 1009.1 |
| 20260504140400 | 60 | 339 | 1.0 | 5.0 | 0.00 | 0.00 | 0.00 | 67 | 1009.0 |
| 20260504140301 | 60 | 63 | 2.0 | 5.0 | 0.00 | 0.00 | 0.00 | 66 | 1009.0 |
| 20260504140200 | 60 | 139 | 1.0 | 6.0 | 0.00 | 0.00 | 0.00 | 66 | 1009.1 |
| 20260504130759 | 56 | 262 | 2.0 | 6.0 | 0.00 | 0.00 | 0.00 | 71 | 1009.8 |
| 20260504130559 | 56 | 191 | 1.0 | 6.0 | 0.00 | 0.00 | 0.00 | 71 | 1009.8 |
| 20260504130500 | 56 | 206 | 0.0 | 6.0 | 0.00 | 0.00 | 0.00 | 70 | 1009.8 |
| 20260504130359 | 56 | 118 | 3.0 | 5.0 | 0.00 | 0.00 | 0.00 | 71 | 1009.9 |
| 20260504130259 | 55 | 132 | 1.0 | 5.0 | 0.00 | 0.00 | 0.00 | 70 | 1009.8 |
| 20260504130201 | 55 | 153 | 1.0 | 5.0 | 0.00 | 0.00 | 0.00 | 70 | 1009.9 |
| 20260504120259 | 55 | 181 | 0.0 | 5.0 | 0.00 | 0.00 | 0.00 | 70 | 1009.9 |
| 20260504120202 | 55 | 71 | 1.0 | 5.0 | 0.00 | 0.00 | 0.00 | 70 | 1009.8 |
| 20260504110559 | 54 | 251 | 0.0 | 6.0 | 0.00 | 0.00 | 0.00 | 67 | 1009.5 |
| 20260504110501 | 54 | 213 | 1.0 | 6.0 | 0.00 | 0.00 | 0.00 | 67 | 1009.5 |
| 20260504110401 | 54 | 210 | 1.0 | 6.0 | 0.00 | 0.00 | 0.00 | 67 | 1009.5 |
| 20260504110259 | 54 | 203 | 1.0 | 6.0 | 0.00 | 0.00 | 0.00 | 67 | 1009.5 |
| 20260504110201 | 54 | 199 | 3.0 | 7.0 | 0.00 | 0.00 | 0.00 | 68 | 1009.6 |
| 20260504100601 | 53 | 238 | 1.0 | 7.0 | 0.00 | 0.00 | 0.00 | 66 | 1009.9 |
| 20260504100459 | 53 | 200 | 7.0 | 7.0 | 0.00 | 0.00 | 0.00 | 66 | 1009.8 |
| 20260504100359 | 53 | 290 | 2.0 | 5.0 | 0.00 | 0.00 | 0.00 | 66 | 1009.8 |
| 20260504100200 | 53 | 221 | 1.0 | 5.0 | 0.00 | 0.00 | 0.00 | 66 | 1009.9 |
| 20260504082002 | 53 | 148 | 3.0 | 8.0 | 0.00 | 0.00 | 0.00 | 62 | 1010.4 |
| 20260504081859 | 53 | 136 | 4.0 | 5.0 | 0.00 | 0.00 | 0.00 | 61 | 1010.4 |
| 20260504081758 | 53 | 118 | 2.0 | 4.0 | 0.00 | 0.00 | 0.00 | 62 | 1010.4 |
| 20260504081700 | 53 | 211 | 1.0 | 5.0 | 0.00 | 0.00 | 0.00 | 63 | 1010.4 |
| 20260504081600 | 53 | 204 | 1.0 | 5.0 | 0.00 | 0.00 | 0.00 | 62 | 1010.4 |
| 20260504081459 | 53 | 308 | 0.0 | 5.0 | 0.00 | 0.00 | 0.00 | 62 | 1010.4 |
| 20260504081403 | 53 | 189 | 0.0 | 5.0 | 0.00 | 0.00 | 0.00 | 62 | 1010.4 |
| 20260504081301 | 53 | 218 | 0.0 | 5.0 | 0.00 | 0.00 | 0.00 | 62 | 1010.3 |
| 20260504081200 | 53 | 243 | 0.0 | 5.0 | 0.00 | 0.00 | 0.00 | 62 | 1010.4 |
| 20260504081059 | 53 | 264 | 0.0 | 5.0 | 0.00 | 0.00 | 0.00 | 62 | 1010.4 |
| 20260504080959 | 53 | 248 | 2.0 | 5.0 | 0.00 | 0.00 | 0.00 | 62 | 1010.4 |
| 20260504080900 | 53 | 223 | 0.0 | 5.0 | 0.00 | 0.00 | 0.00 | 62 | 1010.4 |
| 20260504080659 | 53 | 211 | 0.0 | 5.0 | 0.00 | 0.00 | 0.00 | 61 | 1010.5 |
| 20260504080459 | 53 | 115 | 1.0 | 3.0 | 0.00 | 0.00 | 0.00 | 62 | 1010.5 |
| 20260504080359 | 53 | 212 | 2.0 | 3.0 | 0.00 | 0.00 | 0.00 | 62 | 1010.5 |
| 20260504080300 | 53 | 186 | 0.0 | 3.0 | 0.00 | 0.00 | 0.00 | 61 | 1010.5 |
| 20260504080203 | 53 | 162 | 0.0 | 3.0 | 0.00 | 0.00 | 0.00 | 61 | 1010.5 |
| 20260504070400 | 54 | 217 | 6.0 | 8.0 | 0.00 | 0.00 | 0.00 | 60 | 1010.9 |
| 20260504070259 | 54 | 207 | 3.0 | 8.0 | 0.00 | 0.00 | 0.00 | 60 | 1011.0 |
| 20260504070159 | 53 | 173 | 1.0 | 8.0 | 0.00 | 0.00 | 0.00 | 59 | 1010.9 |
| 20260504060159 | 53 | 132 | 0.0 | 4.0 | 0.00 | 0.00 | 0.00 | 60 | 1011.8 |
| 20260504050659 | 54 | 157 | 1.0 | 5.0 | 0.00 | 0.00 | 0.00 | 57 | 1012.1 |
| 20260504050600 | 54 | 199 | 1.0 | 5.0 | 0.00 | 0.00 | 0.00 | 58 | 1012.2 |
| 20260504050459 | 54 | 286 | 1.0 | 5.0 | 0.00 | 0.00 | 0.00 | 57 | 1012.1 |
| 20260504050357 | 54 | 287 | 2.0 | 6.0 | 0.00 | 0.00 | 0.00 | 58 | 1012.1 |
| 20260504050258 | 54 | 184 | 0.0 | 6.0 | 0.00 | 0.00 | 0.00 | 58 | 1012.1 |
| 20260504050159 | 54 | 184 | 0.0 | 6.0 | 0.00 | 0.00 | 0.00 | 58 | 1012.2 |
| 20260504045959 | 54 | 163 | 0.0 | 6.0 | 0.00 | 0.00 | 0.00 | 58 | 1012.2 |
| 20260504045901 | 54 | 296 | 0.0 | 6.0 | 0.00 | 0.00 | 0.00 | 58 | 1012.0 |
| 20260504045759 | 54 | 311 | 2.0 | 6.0 | 0.00 | 0.00 | 0.00 | 58 | 1012.2 |
| 20260504045658 | 54 | 167 | 1.0 | 6.0 | 0.00 | 0.00 | 0.00 | 57 | 1012.2 |
| 20260504045600 | 54 | 113 | 0.0 | 6.0 | 0.00 | 0.00 | 0.00 | 57 | 1012.1 |
| 20260504045458 | 54 | 227 | 1.0 | 7.0 | 0.00 | 0.00 | 0.00 | 57 | 1012.1 |
| 20260504045401 | 54 | 176 | 2.0 | 7.0 | 0.00 | 0.00 | 0.00 | 58 | 1012.1 |
| 20260504045259 | 54 | 225 | 3.0 | 4.0 | 0.00 | 0.00 | 0.00 | 58 | 1012.1 |
| 20260504045159 | 54 | 220 | 3.0 | 4.0 | 0.00 | 0.00 | 0.00 | 58 | 1012.1 |
| 20260504045059 | 54 | 201 | 0.0 | 4.0 | 0.00 | 0.00 | 0.00 | 59 | 1012.1 |
| 20260504045000 | 54 | 191 | 0.0 | 4.0 | 0.00 | 0.00 | 0.00 | 58 | 1012.1 |
| 20260504044859 | 54 | 191 | 0.0 | 7.0 | 0.00 | 0.00 | 0.00 | 58 | 1012.1 |
| 20260504044759 | 54 | 182 | 1.0 | 7.0 | 0.00 | 0.00 | 0.00 | 58 | 1012.1 |
| 20260504044658 | 54 | 321 | 2.0 | 7.0 | 0.00 | 0.00 | 0.00 | 58 | 1012.1 |
| 20260504044558 | 54 | 215 | 1.0 | 7.0 | 0.00 | 0.00 | 0.00 | 58 | 1012.2 |
| 20260504044500 | 53 | 230 | 1.0 | 7.0 | 0.00 | 0.00 | 0.00 | 58 | 1012.2 |
| 20260504044400 | 53 | 265 | 1.0 | 7.0 | 0.00 | 0.00 | 0.00 | 58 | 1012.2 |
| 20260504044059 | 53 | 185 | 0.0 | 7.0 | 0.00 | 0.00 | 0.00 | 58 | 1012.2 |
| 20260504043959 | 53 | 177 | 1.0 | 7.0 | 0.00 | 0.00 | 0.00 | 58 | 1012.2 |
| 20260504043859 | 53 | 240 | 0.0 | 7.0 | 0.00 | 0.00 | 0.00 | 58 | 1012.2 |
| 20260504043659 | 53 | 210 | 3.0 | 6.0 | 0.00 | 0.00 | 0.00 | 58 | 1012.2 |
| 20260504043559 | 53 | 194 | 2.0 | 6.0 | 0.00 | 0.00 | 0.00 | 57 | 1012.2 |
| 20260504043459 | 54 | 171 | 0.0 | 3.0 | 0.00 | 0.00 | 0.00 | 58 | 1012.2 |
| 20260504043359 | 53 | 163 | 0.0 | 3.0 | 0.00 | 0.00 | 0.00 | 58 | 1012.2 |
| 20260504043300 | 54 | 163 | 0.0 | 3.0 | 0.00 | 0.00 | 0.00 | 58 | 1012.3 |
| 20260504043203 | 53 | 163 | 0.0 | 3.0 | 0.00 | 0.00 | 0.00 | 58 | 1012.3 |
| 20260504043105 | 54 | 163 | 0.0 | 3.0 | 0.00 | 0.00 | 0.00 | 58 | 1012.2 |
| 20260504043001 | 54 | 316 | 0.0 | 5.0 | 0.00 | 0.00 | 0.00 | 58 | 1012.3 |
| 20260504042901 | 54 | 235 | 2.0 | 5.0 | 0.00 | 0.00 | 0.00 | 58 | 1012.3 |
| 20260504042801 | 54 | 215 | 1.0 | 5.0 | 0.00 | 0.00 | 0.00 | 59 | 1012.2 |
| 20260504042702 | 54 | 186 | 0.0 | 5.0 | 0.00 | 0.00 | 0.00 | 58 | 1012.3 |
| 20260504042601 | 54 | 197 | 1.0 | 5.0 | 0.00 | 0.00 | 0.00 | 58 | 1012.3 |
| 20260504042501 | 54 | 196 | 1.0 | 5.0 | 0.00 | 0.00 | 0.00 | 58 | 1012.3 |
| 20260504042401 | 54 | 351 | 1.0 | 5.0 | 0.00 | 0.00 | 0.00 | 58 | 1012.5 |
| 20260504042304 | 53 | 177 | 2.0 | 5.0 | 0.00 | 0.00 | 0.00 | 58 | 1012.5 |
| 20260504042204 | 54 | 161 | 1.0 | 6.0 | 0.00 | 0.00 | 0.00 | 58 | 1012.3 |
| 20260504042102 | 53 | 211 | 0.0 | 6.0 | 0.00 | 0.00 | 0.00 | 58 | 1012.3 |
| 20260504042002 | 54 | 130 | 1.0 | 6.0 | 0.00 | 0.00 | 0.00 | 58 | 1012.4 |
| 20260504041801 | 54 | 200 | 0.0 | 6.0 | 0.00 | 0.00 | 0.00 | 57 | 1012.4 |
| 20260504041703 | 53 | 200 | 0.0 | 6.0 | 0.00 | 0.00 | 0.00 | 58 | 1012.4 |
| 20260504041602 | 53 | 236 | 0.0 | 6.0 | 0.00 | 0.00 | 0.00 | 58 | 1012.5 |
| 20260504041501 | 53 | 150 | 0.0 | 6.0 | 0.00 | 0.00 | 0.00 | 58 | 1012.4 |
| 20260504041402 | 53 | 146 | 0.0 | 6.0 | 0.00 | 0.00 | 0.00 | 57 | 1012.4 |
| 20260504041303 | 53 | 192 | 5.0 | 6.0 | 0.00 | 0.00 | 0.00 | 57 | 1012.5 |
| 20260504041202 | 53 | 192 | 4.0 | 5.0 | 0.00 | 0.00 | 0.00 | 57 | 1012.5 |
| 20260504041101 | 53 | 210 | 0.0 | 3.0 | 0.00 | 0.00 | 0.00 | 58 | 1012.5 |
| 20260504041002 | 53 | 210 | 0.0 | 4.0 | 0.00 | 0.00 | 0.00 | 58 | 1012.5 |
| 20260504040904 | 53 | 213 | 1.0 | 4.0 | 0.00 | 0.00 | 0.00 | 59 | 1012.5 |
| 20260504040702 | 53 | 231 | 0.0 | 4.0 | 0.00 | 0.00 | 0.00 | 59 | 1012.5 |
| 20260504040602 | 53 | 231 | 0.0 | 4.0 | 0.00 | 0.00 | 0.00 | 59 | 1012.5 |
| 20260504040501 | 53 | 231 | 0.0 | 4.0 | 0.00 | 0.00 | 0.00 | 59 | 1012.5 |
| 20260504040402 | 53 | 231 | 0.0 | 4.0 | 0.00 | 0.00 | 0.00 | 59 | 1012.5 |
| 20260504040301 | 53 | 231 | 0.0 | 4.0 | 0.00 | 0.00 | 0.00 | 59 | 1012.5 |
| 20260504040202 | 53 | 231 | 0.0 | 4.0 | 0.00 | 0.00 | 0.00 | 59 | 1012.5 |
| 20260504040000 | 53 | 231 | 0.0 | 4.0 | 0.00 | 0.00 | 0.00 | 59 | 1012.5 |
| 20260504035900 | 53 | 215 | 1.0 | 4.0 | 0.00 | 0.00 | 0.00 | 59 | 1012.5 |
| 20260504035801 | 53 | 206 | 0.0 | 4.0 | 0.00 | 0.00 | 0.00 | 58 | 1012.6 |
| 20260504035701 | 53 | 207 | 0.0 | 4.0 | 0.00 | 0.00 | 0.00 | 58 | 1012.6 |
| 20260504035600 | 53 | 188 | 2.0 | 4.0 | 0.00 | 0.00 | 0.00 | 58 | 1012.6 |
| 20260504035300 | 53 | 161 | 0.0 | 4.0 | 0.00 | 0.00 | 0.00 | 59 | 1012.7 |
| 20260504035100 | 53 | 288 | 0.0 | 4.0 | 0.00 | 0.00 | 0.00 | 59 | 1012.7 |
| 20260504035000 | 53 | 288 | 0.0 | 4.0 | 0.00 | 0.00 | 0.00 | 58 | 1012.8 |
| 20260504034900 | 53 | 288 | 0.0 | 4.0 | 0.00 | 0.00 | 0.00 | 58 | 1012.7 |
| 20260504034801 | 53 | 288 | 0.0 | 4.0 | 0.00 | 0.00 | 0.00 | 58 | 1012.8 |
| 20260504034700 | 53 | 284 | 1.0 | 4.0 | 0.00 | 0.00 | 0.00 | 58 | 1012.8 |
| 20260504034601 | 53 | 28 | 1.0 | 4.0 | 0.00 | 0.00 | 0.00 | 58 | 1012.8 |
| 20260504034400 | 53 | 103 | 0.0 | 4.0 | 0.00 | 0.00 | 0.00 | 58 | 1012.9 |
| 20260504034302 | 53 | 5 | 0.0 | 2.0 | 0.00 | 0.00 | 0.00 | 58 | 1012.8 |
| 20260504034201 | 53 | 232 | 0.0 | 2.0 | 0.00 | 0.00 | 0.00 | 59 | 1012.8 |
| 20260504034001 | 53 | 232 | 0.0 | 2.0 | 0.00 | 0.00 | 0.00 | 59 | 1012.9 |
| 20260504033901 | 53 | 227 | 0.0 | 2.0 | 0.00 | 0.00 | 0.00 | 58 | 1013.0 |
| 20260504033803 | 53 | 223 | 0.0 | 2.0 | 0.00 | 0.00 | 0.00 | 59 | 1012.8 |
| 20260504033702 | 53 | 164 | 0.0 | 2.0 | 0.00 | 0.00 | 0.00 | 58 | 1013.0 |
| 20260504033601 | 53 | 96 | 0.0 | 2.0 | 0.00 | 0.00 | 0.00 | 59 | 1012.8 |
| 20260504033502 | 53 | 122 | 0.0 | 2.0 | 0.00 | 0.00 | 0.00 | 58 | 1012.9 |
| 20260504033400 | 53 | 105 | 0.0 | 2.0 | 0.00 | 0.00 | 0.00 | 58 | 1012.9 |
| 20260504033300 | 53 | 112 | 0.0 | 2.0 | 0.00 | 0.00 | 0.00 | 58 | 1012.9 |
| 20260504033202 | 53 | 112 | 0.0 | 2.0 | 0.00 | 0.00 | 0.00 | 58 | 1012.9 |
| 20260504033102 | 53 | 109 | 0.0 | 2.0 | 0.00 | 0.00 | 0.00 | 58 | 1012.9 |
| 20260504033000 | 53 | 307 | 1.0 | 2.0 | 0.00 | 0.00 | 0.00 | 58 | 1012.9 |
| 20260504032900 | 53 | 177 | 0.0 | 2.0 | 0.00 | 0.00 | 0.00 | 59 | 1012.8 |
| 20260504032800 | 53 | 176 | 0.0 | 2.0 | 0.00 | 0.00 | 0.00 | 59 | 1012.9 |
| 20260504032700 | 53 | 176 | 0.0 | 2.0 | 0.00 | 0.00 | 0.00 | 59 | 1012.9 |
| 20260504032602 | 53 | 176 | 0.0 | 2.0 | 0.00 | 0.00 | 0.00 | 59 | 1013.0 |
| 20260504032500 | 53 | 168 | 1.0 | 2.0 | 0.00 | 0.00 | 0.00 | 59 | 1013.0 |
| 20260504032201 | 53 | 202 | 0.0 | 2.0 | 0.00 | 0.00 | 0.00 | 58 | 1012.9 |
| 20260504032101 | 53 | 142 | 0.0 | 2.0 | 0.00 | 0.00 | 0.00 | 59 | 1012.9 |
| 20260504032002 | 53 | 169 | 0.0 | 2.0 | 0.00 | 0.00 | 0.00 | 59 | 1013.0 |
| 20260504031902 | 53 | 155 | 0.0 | 2.0 | 0.00 | 0.00 | 0.00 | 59 | 1012.9 |
| 20260504031800 | 53 | 155 | 0.0 | 2.0 | 0.00 | 0.00 | 0.00 | 59 | 1012.9 |
| 20260504031700 | 53 | 155 | 0.0 | 2.0 | 0.00 | 0.00 | 0.00 | 59 | 1012.9 |
| 20260504031600 | 53 | 155 | 2.0 | 5.0 | 0.00 | 0.00 | 0.00 | 59 | 1012.9 |
| 20260504031500 | 53 | 142 | 1.0 | 5.0 | 0.00 | 0.00 | 0.00 | 59 | 1012.9 |
| 20260504031401 | 53 | 142 | 1.0 | 5.0 | 0.00 | 0.00 | 0.00 | 59 | 1012.8 |
| 20260504031300 | 53 | 141 | 1.0 | 5.0 | 0.00 | 0.00 | 0.00 | 58 | 1012.9 |
| 20260504031201 | 53 | 139 | 1.0 | 5.0 | 0.00 | 0.00 | 0.00 | 59 | 1012.9 |
| 20260504031000 | 53 | 191 | 0.0 | 5.0 | 0.00 | 0.00 | 0.00 | 59 | 1012.8 |
| 20260504030900 | 53 | 191 | 0.0 | 5.0 | 0.00 | 0.00 | 0.00 | 59 | 1012.9 |
| 20260504030800 | 53 | 188 | 0.0 | 5.0 | 0.00 | 0.00 | 0.00 | 59 | 1012.8 |
| 20260504030602 | 53 | 200 | 0.0 | 0.0 | 0.00 | 0.00 | 0.00 | 59 | 1012.9 |
| 20260504030500 | 53 | 200 | 0.0 | 0.0 | 0.00 | 0.00 | 0.00 | 59 | 1012.9 |
| 20260504030404 | 53 | 176 | 0.0 | 0.0 | 0.00 | 0.00 | 0.00 | 59 | 1012.9 |
| 20260504030303 | 54 | 176 | 0.0 | 0.0 | 0.00 | 0.00 | 0.00 | 59 | 1012.9 |
| 20260504030159 | 54 | 161 | 0.0 | 0.0 | 0.00 | 0.00 | 0.00 | 59 | 1013.0 |
| 20260504030101 | 54 | 158 | 0.0 | 0.0 | 0.00 | 0.00 | 0.00 | 59 | 1012.9 |
| 20260504030000 | 54 | 158 | 0.0 | 0.0 | 0.00 | 0.00 | 0.00 | 59 | 1012.9 |
| 20260504025900 | 54 | 158 | 0.0 | 0.0 | 0.00 | 0.00 | 0.00 | 59 | 1012.9 |
| 20260504025803 | 54 | 240 | 0.0 | 0.0 | 0.00 | 0.00 | 0.00 | 59 | 1013.0 |
| 20260504025701 | 54 | 242 | 0.0 | 0.0 | 0.00 | 0.00 | 0.00 | 59 | 1013.0 |
| 20260504025501 | 54 | 263 | 0.0 | 0.0 | 0.00 | 0.00 | 0.00 | 59 | 1012.9 |
| 20260504025402 | 54 | 263 | 0.0 | 0.0 | 0.00 | 0.00 | 0.00 | 59 | 1012.8 |
| 20260504025259 | 54 | 263 | 0.0 | 0.0 | 0.00 | 0.00 | 0.00 | 59 | 1013.0 |
| 20260504025200 | 54 | 268 | 0.0 | 0.0 | 0.00 | 0.00 | 0.00 | 59 | 1012.9 |
| 20260504025100 | 54 | 215 | 0.0 | 0.0 | 0.00 | 0.00 | 0.00 | 59 | 1012.9 |
| 20260504024900 | 54 | 214 | 0.0 | 0.0 | 0.00 | 0.00 | 0.00 | 59 | 1013.0 |
| 20260504024800 | 54 | 214 | 0.0 | 0.0 | 0.00 | 0.00 | 0.00 | 59 | 1013.0 |
| 20260504024700 | 54 | 214 | 0.0 | 0.0 | 0.00 | 0.00 | 0.00 | 58 | 1013.0 |
| 20260504024559 | 54 | 214 | 0.0 | 0.0 | 0.00 | 0.00 | 0.00 | 58 | 1012.9 |
| 20260504024500 | 54 | 214 | 0.0 | 0.0 | 0.00 | 0.00 | 0.00 | 58 | 1013.0 |
| 20260504024400 | 54 | 192 | 0.0 | 0.0 | 0.00 | 0.00 | 0.00 | 58 | 1013.0 |
| 20260504024302 | 54 | 192 | 0.0 | 0.0 | 0.00 | 0.00 | 0.00 | 59 | 1013.0 |
| 20260504024203 | 54 | 192 | 0.0 | 0.0 | 0.00 | 0.00 | 0.00 | 58 | 1013.0 |
| 20260504024100 | 55 | 192 | 0.0 | 0.0 | 0.00 | 0.00 | 0.00 | 58 | 1013.0 |
| 20260504024000 | 55 | 192 | 0.0 | 0.0 | 0.00 | 0.00 | 0.00 | 59 | 1013.1 |
| 20260504023900 | 55 | 192 | 0.0 | 0.0 | 0.00 | 0.00 | 0.00 | 58 | 1013.0 |
| 20260504023801 | 55 | 192 | 0.0 | 0.0 | 0.00 | 0.00 | 0.00 | 58 | 1013.0 |
| 20260504023700 | 55 | 192 | 0.0 | 0.0 | 0.00 | 0.00 | 0.00 | 59 | 1013.1 |
| 20260504023603 | 55 | 192 | 0.0 | 0.0 | 0.00 | 0.00 | 0.00 | 57 | 1013.1 |
| 20260504023501 | 55 | 192 | 0.0 | 0.0 | 0.00 | 0.00 | 0.00 | 57 | 1013.1 |
| 20260504023400 | 55 | 192 | 0.0 | 0.0 | 0.00 | 0.00 | 0.00 | 58 | 1013.1 |
| 20260504023200 | 55 | 200 | 0.0 | 3.0 | 0.00 | 0.00 | 0.00 | 58 | 1013.1 |
| 20260504023001 | 55 | 199 | 0.0 | 3.0 | 0.00 | 0.00 | 0.00 | 58 | 1013.0 |
| 20260504022901 | 55 | 200 | 0.0 | 3.0 | 0.00 | 0.00 | 0.00 | 58 | 1013.0 |
| 20260504022800 | 55 | 168 | 0.0 | 3.0 | 0.00 | 0.00 | 0.00 | 58 | 1013.1 |
| 20260504022700 | 55 | 169 | 0.0 | 3.0 | 0.00 | 0.00 | 0.00 | 58 | 1013.0 |
| 20260504022600 | 55 | 167 | 0.0 | 3.0 | 0.00 | 0.00 | 0.00 | 58 | 1013.1 |
| 20260504022500 | 55 | 202 | 0.0 | 3.0 | 0.00 | 0.00 | 0.00 | 57 | 1013.0 |
| 20260504022400 | 55 | 219 | 1.0 | 3.0 | 0.00 | 0.00 | 0.00 | 57 | 1013.1 |
| 20260504022301 | 55 | 178 | 2.0 | 3.0 | 0.00 | 0.00 | 0.00 | 57 | 1013.0 |
| 20260504022201 | 55 | 211 | 0.0 | 2.0 | 0.00 | 0.00 | 0.00 | 57 | 1013.1 |
| 20260504022101 | 55 | 209 | 1.0 | 2.0 | 0.00 | 0.00 | 0.00 | 57 | 1013.1 |
| 20260504022001 | 55 | 223 | 1.0 | 2.0 | 0.00 | 0.00 | 0.00 | 57 | 1013.1 |
| 20260504021800 | 55 | 266 | 0.0 | 3.0 | 0.00 | 0.00 | 0.00 | 57 | 1013.0 |
| 20260504021700 | 55 | 221 | 2.0 | 3.0 | 0.00 | 0.00 | 0.00 | 57 | 1013.0 |
| 20260504021600 | 55 | 226 | 0.0 | 3.0 | 0.00 | 0.00 | 0.00 | 57 | 1013.0 |
| 20260504021500 | 55 | 209 | 0.0 | 4.0 | 0.00 | 0.00 | 0.00 | 58 | 1013.0 |
| 20260504021402 | 55 | 209 | 0.0 | 4.0 | 0.00 | 0.00 | 0.00 | 57 | 1013.1 |
| 20260504021300 | 55 | 248 | 0.0 | 4.0 | 0.00 | 0.00 | 0.00 | 57 | 1013.0 |
| 20260504021201 | 54 | 249 | 0.0 | 4.0 | 0.00 | 0.00 | 0.00 | 56 | 1012.9 |
| 20260504021100 | 55 | 234 | 2.0 | 4.0 | 0.00 | 0.00 | 0.00 | 57 | 1012.9 |
| 20260504021000 | 55 | 216 | 1.0 | 4.0 | 0.00 | 0.00 | 0.00 | 57 | 1012.8 |
| 20260504020800 | 55 | 203 | 0.0 | 4.0 | 0.00 | 0.00 | 0.00 | 58 | 1012.8 |
| 20260504020702 | 54 | 198 | 1.0 | 4.0 | 0.00 | 0.00 | 0.00 | 56 | 1012.8 |
| 20260504020600 | 55 | 234 | 0.0 | 4.0 | 0.00 | 0.00 | 0.00 | 57 | 1012.7 |
| 20260504020500 | 54 | 220 | 2.0 | 4.0 | 0.00 | 0.00 | 0.00 | 58 | 1012.9 |
| 20260504020400 | 55 | 219 | 0.0 | 4.0 | 0.00 | 0.00 | 0.00 | 58 | 1012.8 |
| 20260504020302 | 55 | 219 | 0.0 | 4.0 | 0.00 | 0.00 | 0.00 | 58 | 1012.8 |
| 20260504020200 | 55 | 152 | 0.0 | 4.0 | 0.00 | 0.00 | 0.00 | 58 | 1012.7 |
| 20260504015900 | 55 | 257 | 0.0 | 4.0 | 0.00 | 0.00 | 0.00 | 58 | 1012.6 |
| 20260504015701 | 55 | 259 | 0.0 | 4.0 | 0.00 | 0.00 | 0.00 | 57 | 1012.7 |
| 20260504015600 | 55 | 219 | 1.0 | 4.0 | 0.00 | 0.00 | 0.00 | 59 | 1012.7 |
| 20260504015400 | 55 | 200 | 0.0 | 2.0 | 0.00 | 0.00 | 0.00 | 58 | 1012.8 |
| 20260504015301 | 55 | 200 | 0.0 | 2.0 | 0.00 | 0.00 | 0.00 | 58 | 1012.8 |
| 20260504015202 | 55 | 200 | 0.0 | 2.0 | 0.00 | 0.00 | 0.00 | 57 | 1012.9 |
| 20260504015102 | 55 | 178 | 1.0 | 2.0 | 0.00 | 0.00 | 0.00 | 57 | 1012.9 |
| 20260504015001 | 55 | 165 | 2.0 | 4.0 | 0.00 | 0.00 | 0.00 | 58 | 1012.8 |
| 20260504014800 | 55 | 181 | 0.0 | 4.0 | 0.00 | 0.00 | 0.00 | 58 | 1012.9 |
| 20260504014701 | 55 | 184 | 1.0 | 4.0 | 0.00 | 0.00 | 0.00 | 58 | 1012.8 |
| 20260504014600 | 55 | 176 | 0.0 | 4.0 | 0.00 | 0.00 | 0.00 | 58 | 1012.7 |
| 20260504014301 | 55 | 150 | 0.0 | 4.0 | 0.00 | 0.00 | 0.00 | 58 | 1012.7 |
| 20260504014200 | 55 | 126 | 2.0 | 5.0 | 0.00 | 0.00 | 0.00 | 59 | 1012.7 |
| 20260504014101 | 55 | 179 | 0.0 | 2.0 | 0.00 | 0.00 | 0.00 | 58 | 1012.7 |
| 20260504014000 | 55 | 179 | 0.0 | 2.0 | 0.00 | 0.00 | 0.00 | 58 | 1012.7 |
| 20260504013901 | 55 | 179 | 0.0 | 3.0 | 0.00 | 0.00 | 0.00 | 59 | 1012.7 |
| 20260504013800 | 55 | 179 | 0.0 | 3.0 | 0.00 | 0.00 | 0.00 | 59 | 1012.7 |
| 20260504013700 | 55 | 179 | 0.0 | 3.0 | 0.00 | 0.00 | 0.00 | 58 | 1012.7 |
| 20260504013601 | 55 | 179 | 0.0 | 3.0 | 0.00 | 0.00 | 0.00 | 58 | 1012.7 |
| 20260504013500 | 55 | 185 | 1.0 | 3.0 | 0.00 | 0.00 | 0.00 | 57 | 1012.7 |
| 20260504013402 | 55 | 212 | 0.0 | 3.0 | 0.00 | 0.00 | 0.00 | 58 | 1012.6 |
| 20260504013301 | 55 | 212 | 0.0 | 3.0 | 0.00 | 0.00 | 0.00 | 57 | 1012.7 |
| 20260504013200 | 55 | 212 | 1.0 | 3.0 | 0.00 | 0.00 | 0.00 | 57 | 1012.7 |
| 20260504013001 | 55 | 226 | 1.0 | 2.0 | 0.00 | 0.00 | 0.00 | 57 | 1012.8 |
| 20260504012901 | 55 | 229 | 1.0 | 2.0 | 0.00 | 0.00 | 0.00 | 57 | 1012.7 |
| 20260504012700 | 55 | 191 | 0.0 | 2.0 | 0.00 | 0.00 | 0.00 | 58 | 1012.7 |
| 20260504012601 | 55 | 198 | 0.0 | 2.0 | 0.00 | 0.00 | 0.00 | 58 | 1012.7 |
| 20260504012400 | 55 | 163 | 0.0 | 5.0 | 0.00 | 0.00 | 0.00 | 57 | 1012.6 |
| 20260504012300 | 55 | 163 | 0.0 | 5.0 | 0.00 | 0.00 | 0.00 | 57 | 1012.6 |
| 20260504012200 | 55 | 163 | 1.0 | 5.0 | 0.00 | 0.00 | 0.00 | 56 | 1012.6 |
| 20260504012103 | 55 | 163 | 0.0 | 5.0 | 0.00 | 0.00 | 0.00 | 56 | 1012.6 |
| 20260504011901 | 56 | 163 | 0.0 | 5.0 | 0.00 | 0.00 | 0.00 | 56 | 1012.5 |
| 20260504011801 | 56 | 156 | 0.0 | 5.0 | 0.00 | 0.00 | 0.00 | 57 | 1012.5 |
| 20260504011700 | 56 | 149 | 2.0 | 5.0 | 0.00 | 0.00 | 0.00 | 56 | 1012.6 |
| 20260504011600 | 56 | 165 | 1.0 | 5.0 | 0.00 | 0.00 | 0.00 | 56 | 1012.5 |
| 20260504011502 | 56 | 202 | 2.0 | 3.0 | 0.00 | 0.00 | 0.00 | 56 | 1012.5 |
| 20260504011400 | 56 | 136 | 1.0 | 3.0 | 0.00 | 0.00 | 0.00 | 56 | 1012.6 |
| 20260504011300 | 56 | 140 | 1.0 | 3.0 | 0.00 | 0.00 | 0.00 | 57 | 1012.5 |
| 20260504011200 | 56 | 207 | 0.0 | 3.0 | 0.00 | 0.00 | 0.00 | 56 | 1012.6 |
| 20260504011002 | 56 | 234 | 2.0 | 3.0 | 0.00 | 0.00 | 0.00 | 56 | 1012.6 |
| 20260504010900 | 56 | 186 | 1.0 | 3.0 | 0.00 | 0.00 | 0.00 | 56 | 1012.7 |
| 20260504010801 | 56 | 355 | 0.0 | 3.0 | 0.00 | 0.00 | 0.00 | 56 | 1012.8 |
| 20260504010700 | 56 | 321 | 1.0 | 5.0 | 0.00 | 0.00 | 0.00 | 55 | 1012.8 |
| 20260504010559 | 56 | 213 | 2.0 | 5.0 | 0.00 | 0.00 | 0.00 | 55 | 1012.7 |
| 20260504010501 | 57 | 240 | 1.0 | 5.0 | 0.00 | 0.00 | 0.00 | 56 | 1012.7 |
| 20260504010402 | 57 | 259 | 3.0 | 5.0 | 0.00 | 0.00 | 0.00 | 57 | 1012.5 |
| 20260504010300 | 57 | 106 | 1.0 | 5.0 | 0.00 | 0.00 | 0.00 | 55 | 1012.6 |
| 20260504010200 | 57 | 153 | 0.0 | 5.0 | 0.00 | 0.00 | 0.00 | 54 | 1012.6 |
| 20260504010004 | 57 | 169 | 1.0 | 5.0 | 0.00 | 0.00 | 0.00 | 53 | 1012.6 |
| 20260504005903 | 57 | 186 | 0.0 | 6.0 | 0.00 | 0.00 | 0.00 | 52 | 1012.8 |
| 20260504005800 | 57 | 198 | 4.0 | 6.0 | 0.00 | 0.00 | 0.00 | 52 | 1012.9 |
| 20260504005700 | 57 | 213 | 5.0 | 6.0 | 0.00 | 0.00 | 0.00 | 52 | 1012.9 |
| 20260504005600 | 57 | 136 | 2.0 | 6.0 | 0.00 | 0.00 | 0.00 | 52 | 1012.9 |
| 20260504005501 | 57 | 174 | 2.0 | 6.0 | 0.00 | 0.00 | 0.00 | 51 | 1012.9 |
| 20260504005300 | 57 | 207 | 3.0 | 9.0 | 0.00 | 0.00 | 0.00 | 49 | 1012.9 |
| 20260504005200 | 57 | 252 | 2.0 | 9.0 | 0.00 | 0.00 | 0.00 | 50 | 1013.0 |
| 20260504005102 | 58 | 217 | 0.0 | 9.0 | 0.00 | 0.00 | 0.00 | 50 | 1013.0 |
| 20260504005002 | 58 | 184 | 6.0 | 9.0 | 0.00 | 0.00 | 0.00 | 49 | 1013.1 |
| 20260504004901 | 58 | 200 | 2.0 | 9.0 | 0.00 | 0.00 | 0.00 | 47 | 1013.0 |
| 20260504004801 | 58 | 255 | 3.0 | 9.0 | 0.00 | 0.00 | 0.00 | 46 | 1013.1 |
| 20260504004700 | 58 | 206 | 2.0 | 9.0 | 0.00 | 0.00 | 0.00 | 47 | 1013.0 |
| 20260504004600 | 58 | 222 | 1.0 | 7.0 | 0.00 | 0.00 | 0.00 | 47 | 1012.9 |
| 20260504004500 | 58 | 325 | 1.0 | 7.0 | 0.00 | 0.00 | 0.00 | 47 | 1013.0 |
| 20260504004400 | 58 | 226 | 2.0 | 7.0 | 0.00 | 0.00 | 0.00 | 46 | 1013.0 |
| 20260504004200 | 58 | 63 | 2.0 | 7.0 | 0.00 | 0.00 | 0.00 | 46 | 1012.9 |
| 20260504004101 | 58 | 202 | 0.0 | 7.0 | 0.00 | 0.00 | 0.00 | 47 | 1013.0 |
| 20260504003900 | 58 | 225 | 4.0 | 7.0 | 0.00 | 0.00 | 0.00 | 46 | 1013.0 |
| 20260504003800 | 58 | 202 | 7.0 | 8.0 | 0.00 | 0.00 | 0.00 | 46 | 1012.9 |
| 20260504003701 | 58 | 264 | 2.0 | 8.0 | 0.00 | 0.00 | 0.00 | 46 | 1012.9 |
| 20260504003600 | 58 | 209 | 3.0 | 8.0 | 0.00 | 0.00 | 0.00 | 45 | 1012.8 |
| 20260504003459 | 58 | 199 | 3.0 | 8.0 | 0.00 | 0.00 | 0.00 | 45 | 1012.9 |
| 20260504003400 | 58 | 222 | 2.0 | 8.0 | 0.00 | 0.00 | 0.00 | 45 | 1012.9 |
| 20260504003300 | 58 | 211 | 4.0 | 8.0 | 0.00 | 0.00 | 0.00 | 46 | 1012.9 |
| 20260504003202 | 58 | 342 | 2.0 | 8.0 | 0.00 | 0.00 | 0.00 | 45 | 1012.8 |
| 20260504003101 | 58 | 135 | 2.0 | 8.0 | 0.00 | 0.00 | 0.00 | 45 | 1012.9 |
| 20260504003000 | 58 | 178 | 4.0 | 8.0 | 0.00 | 0.00 | 0.00 | 45 | 1012.9 |
| 20260504002900 | 58 | 212 | 6.0 | 8.0 | 0.00 | 0.00 | 0.00 | 46 | 1012.8 |
| 20260504002801 | 58 | 262 | 0.0 | 6.0 | 0.00 | 0.00 | 0.00 | 46 | 1012.8 |
| 20260504002701 | 58 | 265 | 0.0 | 7.0 | 0.00 | 0.00 | 0.00 | 45 | 1012.7 |
| 20260504002600 | 58 | 276 | 1.0 | 7.0 | 0.00 | 0.00 | 0.00 | 45 | 1012.9 |
| 20260504002500 | 58 | 234 | 1.0 | 7.0 | 0.00 | 0.00 | 0.00 | 45 | 1012.8 |
| 20260504002400 | 58 | 227 | 0.0 | 7.0 | 0.00 | 0.00 | 0.00 | 44 | 1012.8 |
| 20260504002303 | 58 | 255 | 1.0 | 7.0 | 0.00 | 0.00 | 0.00 | 44 | 1012.9 |
| 20260504002202 | 58 | 181 | 0.0 | 7.0 | 0.00 | 0.00 | 0.00 | 44 | 1012.9 |
| 20260504002100 | 58 | 213 | 0.0 | 7.0 | 0.00 | 0.00 | 0.00 | 43 | 1013.0 |
| 20260504001900 | 58 | 167 | 5.0 | 8.0 | 0.00 | 0.00 | 0.00 | 43 | 1013.0 |
| 20260504001800 | 58 | 298 | 1.0 | 7.0 | 0.00 | 0.00 | 0.00 | 43 | 1013.0 |
| 20260504001701 | 59 | 207 | 2.0 | 7.0 | 0.00 | 0.00 | 0.00 | 43 | 1012.9 |
| 20260504001600 | 59 | 215 | 2.0 | 7.0 | 0.00 | 0.00 | 0.00 | 43 | 1013.0 |
| 20260504001500 | 59 | 213 | 1.0 | 7.0 | 0.00 | 0.00 | 0.00 | 43 | 1013.0 |
| 20260504001401 | 59 | 210 | 1.0 | 7.0 | 0.00 | 0.00 | 0.00 | 43 | 1012.8 |
| 20260504001301 | 59 | 175 | 0.0 | 7.0 | 0.00 | 0.00 | 0.00 | 43 | 1012.8 |
| 20260504001200 | 59 | 299 | 1.0 | 7.0 | 0.00 | 0.00 | 0.00 | 42 | 1012.8 |
| 20260504000959 | 59 | 192 | 3.0 | 6.0 | 0.00 | 0.00 | 0.00 | 43 | 1012.8 |
| 20260504000902 | 59 | 185 | 0.0 | 6.0 | 0.00 | 0.00 | 0.00 | 42 | 1012.8 |
| 20260504000803 | 59 | 86 | 1.0 | 6.0 | 0.00 | 0.00 | 0.00 | 42 | 1012.7 |
| 20260504000701 | 59 | 202 | 4.0 | 6.0 | 0.00 | 0.00 | 0.00 | 42 | 1012.7 |
| 20260504000600 | 59 | 215 | 1.0 | 6.0 | 0.00 | 0.00 | 0.00 | 43 | 1012.7 |
| 20260504000501 | 59 | 171 | 1.0 | 6.0 | 0.00 | 0.00 | 0.00 | 42 | 1012.7 |
| 20260504000402 | 59 | 186 | 0.0 | 5.0 | 0.00 | 0.00 | 0.00 | 42 | 1012.6 |
| 20260504000301 | 59 | 134 | 1.0 | 5.0 | 0.00 | 0.00 | 0.00 | 42 | 1012.6 |
| 20260504000101 | 59 | 58 | 2.0 | 5.0 | 0.00 | 0.00 | 0.00 | 42 | 1012.6 |
| 20260503235901 | 59 | 207 | 1.0 | 5.0 | 0.00 | 0.00 | 0.00 | 42 | 1012.6 |
| 20260503235801 | 59 | 148 | 0.0 | 6.0 | 0.00 | 0.00 | 0.00 | 41 | 1012.5 |
| 20260503235701 | 59 | 255 | 3.0 | 6.0 | 0.00 | 0.00 | 0.00 | 42 | 1012.5 |
| 20260503235600 | 59 | 101 | 1.0 | 6.0 | 0.00 | 0.00 | 0.00 | 42 | 1012.5 |
| 20260503235502 | 59 | 242 | 0.0 | 6.0 | 0.00 | 0.00 | 0.00 | 42 | 1012.5 |
| 20260503235300 | 59 | 141 | 1.0 | 6.0 | 0.00 | 0.00 | 0.00 | 42 | 1012.4 |
| 20260503235100 | 59 | 93 | 1.0 | 6.0 | 0.00 | 0.00 | 0.00 | 41 | 1012.4 |
| 20260503235000 | 59 | 134 | 3.0 | 6.0 | 0.00 | 0.00 | 0.00 | 41 | 1012.5 |
| 20260503234900 | 59 | 155 | 2.0 | 7.0 | 0.00 | 0.00 | 0.00 | 41 | 1012.5 |
| 20260503234800 | 59 | 158 | 2.0 | 7.0 | 0.00 | 0.00 | 0.00 | 41 | 1012.5 |
| 20260503234702 | 59 | 246 | 2.0 | 7.0 | 0.00 | 0.00 | 0.00 | 42 | 1012.6 |
| 20260503234600 | 59 | 12 | 2.0 | 7.0 | 0.00 | 0.00 | 0.00 | 41 | 1012.6 |
| 20260503234459 | 59 | 196 | 4.0 | 7.0 | 0.00 | 0.00 | 0.00 | 41 | 1012.6 |
| 20260503234300 | 59 | 241 | 0.0 | 4.0 | 0.00 | 0.00 | 0.00 | 41 | 1012.5 |
| 20260503234200 | 59 | 305 | 0.0 | 4.0 | 0.00 | 0.00 | 0.00 | 41 | 1012.6 |
| 20260503234101 | 59 | 197 | 0.0 | 4.0 | 0.00 | 0.00 | 0.00 | 40 | 1012.6 |
| 20260503234001 | 59 | 146 | 1.0 | 4.0 | 0.00 | 0.00 | 0.00 | 40 | 1012.5 |